Home > Weather > Islamabad > Past weeks

Flag for Pakistan Past Weather in Islamabad, Pakistan — Yesterday and Last 2 Weeks

Now
88 °F

Passing clouds.


Feels Like: 90 °F
Forecast: 72 / 95 °F
Wind: 7 mph from Northeast

Location: Islamabad Airport

Current Time: Aug 29, 2016 at 10:49:11 AM

Latest Report: Aug 29, 2016 at 10:00 AM


Visibility: 5 mi

Pressure: 29.77 "Hg (27.97 "Hg at 554m altitude)

Humidity: 49%

Dew Point: 66 °F

Location of IslamabadLocation

Past Weather in Islamabad — Graph

°F

Islamabad Temperature Yesterday

Maximum temperature yesterday: 86 °F (at 2:00 PM)
Minimum temperature yesterday: 73 °F (at 12:00 AM)
Average temperature yesterday: 80 °F

High & Low Weather Summary for the Past Weeks

 TemperatureHumidityPressure
High99 °F (Aug 19, 3:00 PM)94% (Aug 17, 5:00 PM)31.84 "Hg (Aug 17, 5:00 PM)
Low72 °F (Aug 17, 5:00 PM)19% (Aug 22, 7:00 AM)29.47 "Hg (Aug 16, 5:00 PM)
Average85 °F65%29.69 "Hg
* Reported Aug 14 9:00 AM — Aug 29 9:30 AM, Islamabad, Weather by CustomWeather, © 2016

Note: Actual official high and low records may vary slightly from our data, if they occured in-between our weather recording intervals... More about our weather records

Advertising

Islamabad Weather History for the Previous 24 Hours

Scroll right to see more
 ConditionsComfort  
Time TempWeatherWind HumidityBarometerVisibility
9:30 AM
Mon, Aug 29
84 °FPassing clouds.No wind58%29.77 "Hg5 mi
9:00 AM84 °FPassing clouds.No wind58%29.77 "Hg5 mi
8:30 AM81 °FScattered clouds.No wind66%29.77 "Hg5 mi
8:00 AM81 °FScattered clouds.No wind66%29.77 "Hg5 mi
7:00 AM77 °FScattered clouds.No wind74%29.77 "Hg5 mi
6:00 AM73 °FScattered clouds.No wind89%29.77 "Hg5 mi
5:00 AM73 °FPassing clouds.No wind89%29.77 "HgN/A
4:30 AM75 °FPassing clouds.No wind83%29.77 "HgN/A
4:00 AM75 °FPassing clouds.No wind83%29.77 "HgN/A
3:00 AM75 °FPassing clouds.No wind78%29.77 "HgN/A
2:00 AM77 °FPassing clouds.No wind74%29.80 "HgN/A
1:00 AM77 °FPassing clouds.No wind79%29.80 "HgN/A
12:00 AM79 °FPassing clouds.No wind74%29.80 "HgN/A
11:00 PM
Sun, Aug 28
79 °FPassing clouds.No wind74%29.80 "HgN/A
10:00 PM81 °FPassing clouds.No wind70%29.83 "HgN/A
9:30 PM82 °FPassing clouds.No wind66%29.83 "HgN/A
9:00 PM82 °FPassing clouds.No wind66%29.83 "HgN/A
8:30 PM84 °FPassing clouds.No wind62%29.80 "HgN/A
8:00 PM84 °FPassing clouds.No wind62%29.80 "HgN/A
7:00 PM84 °FPassing clouds.5 mph58%29.80 "HgN/A
6:00 PM86 °FPassing clouds.12 mph59%29.80 "HgN/A
5:30 PM86 °FPassing clouds.21 mph59%29.80 "HgN/A
5:00 PM86 °FPassing clouds.21 mph59%29.80 "HgN/A
4:30 PM86 °FPassing clouds.23 mph59%29.83 "HgN/A
4:00 PM86 °FPassing clouds.28 mph59%29.86 "HgN/A
3:30 PM84 °FPassing clouds.32 mph62%29.86 "HgN/A
2:00 PM86 °FPassing clouds.30 mph59%29.89 "HgN/A
12:00 PM84 °FBroken clouds.9 mph62%29.92 "Hg4 mi
11:00 AM82 °FRain. Broken clouds.9 mph66%29.89 "Hg2 mi
10:00 AM81 °FScattered clouds.5 mph74%29.89 "Hg5 mi
Weather by CustomWeather, © 2016

See weather overviewHow to use our weather pages